�搅�E���B���j�^�v������
Date,Time,�搅(cps),���B(cps),���J
2023/10/09,00:00,5.8,4.9,�L
2023/10/09,00:10,5.7,4.8,�L
2023/10/09,00:20,5.9,4.9,�L
2023/10/09,00:30,5.8,5.0,�L
2023/10/09,00:40,6.0,5.0,��
2023/10/09,00:50,5.9,5.0,�L
2023/10/09,01:00,5.8,4.9,�L
2023/10/09,01:10,5.8,4.9,��
2023/10/09,01:20,6.1,4.8,�L
2023/10/09,01:30,6.0,4.8,�L
2023/10/09,01:40,6.1,4.9,�L
2023/10/09,01:50,6.1,5.1,�L
2023/10/09,02:00,6.1,4.9,�L
2023/10/09,02:10,6.1,4.8,�L
2023/10/09,02:20,6.1,4.9,�L
2023/10/09,02:30,6.1,4.9,�L
2023/10/09,02:40,6.0,5.0,�L
2023/10/09,02:50,6.3,5.0,�L
2023/10/09,03:00,6.1,5.0,�L
2023/10/09,03:10,6.0,5.0,�L
2023/10/09,03:20,6.1,5.0,�L
2023/10/09,03:30,6.1,5.1,�L
2023/10/09,03:40,6.0,5.1,�L
2023/10/09,03:50,6.0,4.9,�L
2023/10/09,04:00,6.2,4.9,�L
2023/10/09,04:10,6.2,4.9,�L
2023/10/09,04:20,6.1,5.1,�L
2023/10/09,04:30,6.4,5.1,�L
2023/10/09,04:40,6.4,5.0,�L
2023/10/09,04:50,6.5,5.1,�L
2023/10/09,05:00,6.4,5.2,�L
2023/10/09,05:10,6.5,5.2,�L
2023/10/09,05:20,6.4,4.9,�L
2023/10/09,05:30,6.4,5.1,�L
2023/10/09,05:40,6.5,5.1,�L
2023/10/09,05:50,6.4,5.3,�L
2023/10/09,06:00,6.5,5.0,�L
2023/10/09,06:10,6.6,5.0,�L
2023/10/09,06:20,6.6,5.0,�L
2023/10/09,06:30,6.8,5.2,�L
2023/10/09,06:40,6.7,5.3,�L
2023/10/09,06:50,6.8,5.3,�L
2023/10/09,07:00,6.9,5.4,�L
2023/10/09,07:10,6.9,5.3,�L
2023/10/09,07:20,6.7,5.2,�L
2023/10/09,07:30,6.7,5.2,�L
2023/10/09,07:40,6.9,5.2,�L
2023/10/09,07:50,7.0,5.3,�L
2023/10/09,08:00,6.7,5.3,�L
2023/10/09,08:10,6.9,5.3,�L
2023/10/09,08:20,6.9,5.3,�L
2023/10/09,08:30,6.8,5.3,�L
2023/10/09,08:40,6.9,5.2,�L
2023/10/09,08:50,7.1,5.3,�L
2023/10/09,09:00,7.0,5.3,�L
2023/10/09,09:10,7.0,5.3,�L
2023/10/09,09:20,6.8,5.4,�L
2023/10/09,09:30,7.0,5.4,�L
2023/10/09,09:40,7.0,5.1,�L
2023/10/09,09:50,6.8,5.5,�L
2023/10/09,10:00,6.8,5.2,�L
2023/10/09,10:10,6.9,5.4,�L
2023/10/09,10:20,6.9,5.3,�L
2023/10/09,10:30,7.0,5.2,�L
2023/10/09,10:40,7.0,5.0,�L
2023/10/09,10:50,6.9,5.1,�L
2023/10/09,11:00,6.8,5.1,�L
2023/10/09,11:10,6.8,5.2,�L
2023/10/09,11:20,7.1,5.2,�L
2023/10/09,11:30,7.0,5.2,�L
2023/10/09,11:40,6.8,5.2,�L
2023/10/09,11:50,6.8,5.3,�L
2023/10/09,12:00,6.8,5.1,�L
2023/10/09,12:10,6.8,5.1,�L
2023/10/09,12:20,6.7,5.2,�L
2023/10/09,12:30,6.4,5.1,�L
2023/10/09,12:40,6.6,5.1,�L
2023/10/09,12:50,6.9,5.1,�L
2023/10/09,13:00,6.7,5.1,�L
2023/10/09,13:10,6.6,5.2,�L
2023/10/09,13:20,6.7,5.2,�L
2023/10/09,13:30,6.5,5.1,�L
2023/10/09,13:40,6.7,5.1,�L
2023/10/09,13:50,6.6,5.2,�L
2023/10/09,14:00,6.6,5.1,�L
2023/10/09,14:10,6.6,5.2,�L
2023/10/09,14:20,6.6,5.2,�L
2023/10/09,14:30,6.7,5.1,�L
2023/10/09,14:40,6.5,5.0,�L
2023/10/09,14:50,6.4,5.1,�L
2023/10/09,15:00,6.7,5.2,�L
2023/10/09,15:10,6.5,5.1,�L
2023/10/09,15:20,6.3,5.3,�L
2023/10/09,15:30,6.5,5.1,�L
2023/10/09,15:40,6.4,4.9,�L
2023/10/09,15:50,6.2,4.9,�L
2023/10/09,16:00,6.3,5.0,�L
2023/10/09,16:10,6.4,5.0,�L
2023/10/09,16:20,6.3,5.0,�L
2023/10/09,16:30,6.2,5.1,�L
2023/10/09,16:40,6.5,5.2,�L
2023/10/09,16:50,6.5,5.0,�L
2023/10/09,17:00,6.7,5.1,�L
2023/10/09,17:10,6.7,5.2,�L
2023/10/09,17:20,6.6,5.1,�L
2023/10/09,17:30,6.5,5.1,��
2023/10/09,17:40,6.6,5.1,�L
2023/10/09,17:50,6.6,5.1,��
2023/10/09,18:00,6.7,5.3,�L
2023/10/09,18:10,6.3,5.1,�L
2023/10/09,18:20,6.4,5.2,�L
2023/10/09,18:30,6.2,5.0,�L
2023/10/09,18:40,6.3,5.0,�L
2023/10/09,18:50,6.2,5.0,�L
2023/10/09,19:00,6.1,4.9,�L
2023/10/09,19:10,6.4,5.2,�L
2023/10/09,19:20,6.4,5.2,�L
2023/10/09,19:30,6.3,5.0,�L
2023/10/09,19:40,6.4,4.9,�L
2023/10/09,19:50,6.2,5.0,��
2023/10/09,20:00,6.3,5.1,��
2023/10/09,20:10,6.3,5.2,�L
2023/10/09,20:20,6.4,4.9,�L
2023/10/09,20:30,6.4,5.0,�L
2023/10/09,20:40,6.3,5.1,�L
2023/10/09,20:50,6.4,4.9,�L
2023/10/09,21:00,6.3,5.0,��
2023/10/09,21:10,6.4,4.9,�L
2023/10/09,21:20,6.1,5.0,�L
2023/10/09,21:30,6.1,5.1,�L
2023/10/09,21:40,6.2,5.0,�L
2023/10/09,21:50,6.3,5.1,�L
2023/10/09,22:00,6.3,5.1,�L
2023/10/09,22:10,6.3,5.0,�L
2023/10/09,22:20,6.2,5.0,�L
2023/10/09,22:30,6.2,5.2,�L
2023/10/09,22:40,6.4,5.2,�L
2023/10/09,22:50,6.3,4.9,�L
2023/10/09,23:00,6.3,5.0,�L
2023/10/09,23:10,6.2,5.1,�L
2023/10/09,23:20,6.2,5.0,�L
2023/10/09,23:30,6.1,4.9,�L
2023/10/09,23:40,6.2,5.0,�L
2023/10/09,23:50,6.4,5.0,�L
